Trinidad, CO

8:20 PM MDT on July 29, 2016 (GMT -0600)
Stokes

Weather History for KTAD - January, 2013

Change the Weather History Date:

Thursday, January 24, 2013

  Actual Average Record
Temperature  
Mean Temperature 47 °F 33 °F  
Max Temperature 67 °F 48 °F 70 °F (1970)
Min Temperature 26 °F 18 °F -5 °F (1969)
Degree Days  
Heating Degree Days 18 32  
Month to date heating degree days 823 788  
Since 1 July heating degree days 2872 3056  
Cooling Degree Days 0 0  
Month to date cooling degree days 0 0  
Year to date cooling degree days 0 0  
Moisture  
Dew Point 3 °F    
Average Humidity 22    
Maximum Humidity 37    
Minimum Humidity 6    
Precipitation  
Precipitation 0.00 in 0.01 in 0.17 in (1978)
Month to date precipitation 0.03  
Year to date precipitation 0.03  
Sea Level Pressure  
Sea Level Pressure 30.01 in    
Wind  
Wind Speed 9 mph (WNW)    
Max Wind Speed 22 mph    
Max Gust Speed 25 mph    
Visibility 10 miles    
Events      
T = Trace of Precipitation, MM = Missing Value Source: NWS Daily Summary

Daily Weather History Graph

Daily Weather History Graph

Search for Another Location

Airport or City:

Trip Planner

Search our weather history database for the weather conditions in past years. The results will help you decide how hot, cold, wet, or windy it might be!

Date:

Astronomy

Jan. 24, 2013 Rise Set
Actual Time 7:05 AM MST 5:13 PM MST
Civil Twilight 6:38 AM MST 5:41 PM MST
Nautical Twilight 6:06 AM MST 6:13 PM MST
Astronomical Twilight 5:35 AM MST 6:43 PM MST
Moon 3:18 PM MST (1/24) 5:04 AM MST (1/24)
Length of Visible Light 11h 03m
Length of Day
10h 07m
Waxing Gibbous, 95% of the Moon is Illuminated
Jan 24
Waxing Gibbous
Jan 26
Full
Feb 3
Last Quarter
Feb 10
New
Feb 17
First Quarter

Hourly Weather History & Observations

Time (MST) Temp. Windchill Dew Point Humidity Pressure Visibility Wind Dir Wind Speed Gust Speed Precip Events Conditions
12:54 AM 35.1 °F 27.9 °F -2.9 °F 20% 30.06 in 10.0 mi West 9.2 mph - N/A   Clear
1:54 AM 32.0 °F 24.8 °F -0.9 °F 24% 30.06 in 10.0 mi West 8.1 mph - N/A   Clear
2:54 AM 32.0 °F 23.6 °F -0.9 °F 24% 30.06 in 10.0 mi WNW 10.4 mph - N/A   Clear
3:54 AM 30.9 °F 23.5 °F -2.0 °F 24% 30.04 in 10.0 mi WSW 8.1 mph - N/A   Clear
4:54 AM 28.9 °F 21.1 °F -2.9 °F 25% 30.05 in 10.0 mi SW 8.1 mph - N/A   Clear
5:54 AM 28.0 °F 19.3 °F -2.9 °F 26% 30.07 in 10.0 mi WNW 9.2 mph - N/A   Clear
6:54 AM 33.1 °F 24.4 °F -2.0 °F 22% 30.12 in 10.0 mi West 11.5 mph - N/A   Clear
7:54 AM 34.0 °F 26.0 °F -2.0 °F 22% 30.10 in 10.0 mi WNW 10.4 mph - N/A   Clear
8:54 AM 46.0 °F 43.1 °F -2.0 °F 14% 30.04 in 10.0 mi WNW 5.8 mph - N/A   Clear
9:54 AM 63.0 °F - -2.0 °F 7% 30.00 in 10.0 mi WSW 18.4 mph - N/A   Clear
10:54 AM 57.9 °F - -4.0 °F 8% 30.00 in 10.0 mi North 4.6 mph - N/A   Clear
11:54 AM 55.0 °F - 1.0 °F 11% 30.00 in 10.0 mi Calm Calm - N/A   Clear
12:54 PM 64.9 °F - -4.0 °F 6% 29.93 in 10.0 mi South 6.9 mph - N/A   Clear
1:54 PM 64.0 °F - -0.9 °F 7% 29.92 in 10.0 mi SSE 13.8 mph - N/A   Clear
2:54 PM 66.0 °F - -2.9 °F 6% 29.90 in 10.0 mi ESE 5.8 mph - N/A   Clear
3:54 PM 66.9 °F - -2.0 °F 6% 29.89 in 10.0 mi NNE 6.9 mph - N/A   Clear
4:54 PM 59.0 °F - 10.0 °F 14% 29.93 in 10.0 mi NNW 8.1 mph - N/A   Clear
5:54 PM 52.0 °F - 12.0 °F 20% 29.99 in 10.0 mi WNW 10.4 mph - N/A   Clear
6:54 PM 51.1 °F - 12.0 °F 21% 29.98 in 10.0 mi NW 9.2 mph - N/A   Clear
7:54 PM 43.0 °F 38.8 °F 10.9 °F 27% 30.03 in 10.0 mi NW 6.9 mph - N/A   Clear
8:54 PM 41.0 °F 35.8 °F 7.0 °F 25% 30.04 in 10.0 mi West 8.1 mph - N/A   Clear
9:54 PM 37.9 °F 32.1 °F 10.0 °F 32% 29.99 in 10.0 mi WSW 8.1 mph - N/A   Partly Cloudy
10:54 PM 39.0 °F 32.8 °F 16.0 °F 39% 30.03 in 10.0 mi West 9.2 mph - N/A   Clear
11:54 PM 43.0 °F 36.4 °F 18.0 °F 37% 30.03 in 10.0 mi WNW 12.7 mph - N/A   Clear